Погода в Соколово

Россия / Тамбовская область     52°48′28″N   42°26′26″E
темп.,
°C
ветер,
м/с
пор.,
м/с
влажн.,
%
обл.,
%
осадки,
мм/ч
давл.,
гПа
погр.,
м
8 марта, пн
пн800:00−2зюз111893100 0.9 9991135
03:00−5з6148091 1.6 1001464
06:00−8зюз5118971 0.0 1002214
09:00−5юз6128664 0.0 1002550
12:00−2зюз81288100 0.1 10021161
15:00−3з7127897 0.3 10021191
18:00−7зсз5128362 0.1 1005325
21:00−11зсз349032 0.1 100849
9 марта, вт
вт900:00−12з34910 0.0 100928
03:00−14з23940 0.0 101120
06:00−14зсз239514 0.0 101121
09:00−12сз249551 0.0 1012144
12:00−9ссз349298 0.1 1012343
15:00−8сз468899 0.1 1013672
18:00−12сз499498 0.0 1014201
21:00−14сз499694 0.1 1017178
10 марта, ср
ср1000:00−15сз499783 0.1 1019187
03:00−19сз489885 0.1 1020138
06:00−21сз479987 0.0 1022134
09:00−20сз599686 0.0 1023275
12:00−17сз479182 0.0 1024418
15:00−16сз468888 0.0 1025541
18:00−19сз479684 0.0 1026109
21:00−22ссз349989 0.0 102859
11 марта, чт
чт1100:00−24с349923 0.0 102933
03:00−25ссз339711 0.0 103023
06:00−26ссз23970 0.0 103120
09:00−23ссз23950 0.0 1033112
12:00−18ссз23860 0.0 1032241
15:00−16зсз23830 0.0 1032264
18:00−19зюз23910 0.0 103220
21:00−21сз22940 0.0 103320
12 марта, пт
пт1200:00−22з12880 0.0 103420
03:00−23зюз11860 0.0 103420
06:00−23ю22840 0.0 103420
09:00−19ю35900 0.0 1033134
12:00−15ю47850 0.0 1032280
15:00−13ююв598349 0.0 1030373
18:00−15ююв61286100 0.0 1028327
21:00−15ююв71683100 0.0 1026365